Location: Chalaux
(45.4054°N, 1.7152°E)
Time: 06:04:35
(UTC+00:00)

Daily predictions for brighter satellites

Satellite Brightness Start Highest point End
(mag) Time Altitude Azimuth Time Altitude Azimuth Time Altitude Azimuth
Cosmos 1140 Rocket 3.5 19:23:21 10° S 19:28:33 67° ESE 19:33:46 10° NNE
Resurs 1-3 4.3 19:27:11 10° SE 19:31:12 36° ENE 19:35:14 10° N
OBJECT-B 1.7 19:30:45 10° SE 19:33:44 33° ENE 19:36:45 10° N
Cosmos 1441 Rocket 3.3 19:30:10 10° SSW 19:33:55 80° W 19:37:40 10° N
IRIDIUM 106 4.3 19:29:12 10° S 19:34:23 73° E 19:39:37 10° N
Cosmos 1633 Rocket 3.5 19:32:33 10° SSE 19:36:41 40° E 19:40:50 10° NNE
Cosmos 1184 Rocket 3.8 19:34:43 10° SSE 19:37:33 27° E 19:40:23 10° NE
Cosmos 1000 Rocket 4.5 19:32:16 10° N 19:38:32 75° E 19:44:41 10° SSE
SL-08 RB Rocket 3.9 19:34:19 10° S 19:38:57 80° WSW 19:43:39 10° NNW
Cosmos 921 Rocket 3.8 19:37:21 10° N 19:41:13 34° ENE 19:45:01 10° SE
Cosmos 2239 Rocket 4.5 19:36:28 10° S 19:42:33 70° E 19:48:41 10° NNE
Cosmos 2123 Rocket 4.3 19:36:40 10° N 19:42:44 51° ENE 19:48:48 10° SSE
Meteor 1-27 Rocket 3.9 19:42:06 10° N 19:48:05 86° E 19:54:02 10° S
ARGOS 4.2 19:47:49 10° S 19:53:00 48° W 19:58:11 10° NNW
Cosmos 1707 Rocket 3.6 19:49:44 10° N 19:54:06 86° W 19:58:24 10° S
NOSS 3-2 (A) 3.3 19:49:25 10° SSW 19:55:02 72° ESE 20:01:27 10° NE
CZ-2C R/B 2.6 19:49:51 10° NNE 19:55:05 84° ESE 20:00:21 10° SSW
Cosmos 192 4.3 19:51:42 10° NNW 19:56:39 75° ENE 20:01:33 10° SSE
USA 267 4.1 19:53:53 10° ENE 19:59:14 26° SE 20:04:33 10° S
SL-4 R/B 3.3 19:58:13 10° W 20:02:02 37° NNW 20:05:34 10° ENE
SL-16 R/B 3.0 19:56:59 10° NNW 20:02:13 36° NE 20:06:27 15° ESE
MONITOR-E 3.9 20:00:46 10° S 20:03:05 62° WSW 20:05:25 10° NNW
BREEZE-M DEB (TANK) 2.8 20:00:46 10° W 20:03:12 52° N 20:08:27 10° ENE
BREEZE-M DEB (TANK) 4.1 19:59:55 10° WNW 20:04:07 21° WSW 20:06:29 10° S
SL-27 R/B 3.8 20:04:28 17° ESE 20:04:58 18° E 20:07:16 10° NE
NOSS 3-2 (C) 3.4 20:00:18 10° SSW 20:05:45 53° ESE 20:11:57 10° NE
Cosmos 2242 Rocket 4.5 20:02:28 10° N 20:06:26 31° ENE 20:09:08 17° SE
Cosmos 1470 Rocket 3.8 20:02:16 10° SSE 20:06:28 46° E 20:10:40 10° NNE
Sich 1 4.0 20:02:58 10° SSW 20:07:18 52° WNW 20:11:39 10° N
Cosmos 2082 Rocket 2.7 20:04:46 10° SW 20:10:25 65° WNW 20:16:05 10° NNE
BREEZE-M DEB (TANK) 3.3 20:07:51 10° WNW 20:10:49 34° N 20:12:31 11° ENE
USA 186 4.0 20:10:46 10° SW 20:12:00 13° W 20:13:14 10° WNW
Meteor 2-20 Rocket 4.4 20:09:17 10° N 20:15:30 78° E 20:21:38 10° SSE
Meteor 1-4 Rocket 3.2 20:14:40 10° NNW 20:18:04 53° W 20:21:25 10° S
ERS-1 Rocket 4.4 20:16:14 15° E 20:18:50 23° ENE 20:22:41 10° NNE
H-2A R/B 4.4 20:15:26 10° SW 20:19:12 21° W 20:22:56 10° NW
Cosmos 2322 Rocket 2.9 20:14:14 10° NNW 20:19:36 40° NE 20:23:15 19° ESE
Cosmos 2278 4.5 20:15:24 10° NW 20:20:55 51° WSW 20:26:22 10° S
Cosmos 1862 Rocket 3.5 20:17:26 10° N 20:21:54 89° WSW 20:25:59 12° S
Cosmos 1850 Rocket 4.2 20:17:57 10° S 20:23:03 49° ESE 20:28:07 10° NNE
Meteor 1-25 Rocket 4.2 20:19:26 10° S 20:24:58 70° E 20:30:36 10° NNE
SPOT 1/Viking Rocket 4.3 20:23:32 20° ESE 20:26:35 38° ENE 20:31:24 10° N
Cosmos 841 Rocket 4.4 20:22:26 10° N 20:27:11 33° ENE 20:29:56 21° ESE
USA 32 4.0 20:22:32 10° S 20:27:44 72° E 20:32:57 10° N
Cosmos 2360 Rocket 3.5 20:23:45 10° N 20:28:36 28° NE 20:31:48 17° E
USA 276 2.5 20:25:33 10° WNW 20:28:42 58° NNE 20:30:11 27° E
X-37B 0.6 20:26:09 10° W 20:29:16 61° SSW 20:30:22 35° SE
Terra 3.6 20:27:56 14° E 20:29:45 18° ENE 20:32:53 10° NNE
Meteor 1-18 Rocket 4.3 20:24:41 10° N 20:30:11 58° ENE 20:33:52 21° SSE
ATLAS 3B R/B 3.3 20:25:21 10° S 20:30:59 31° ESE 20:36:38 10° NE
IGS 5A 3.9 20:29:39 25° SE 20:31:41 45° ENE 20:35:40 10° N
Cosmos 1238 Rocket 1.9 20:30:33 25° S 20:32:05 68° E 20:35:05 10° NNE
USA 234 4.2 20:29:08 10° E 20:35:10 41° NNE 20:41:13 10° NW
Cosmos 1934 Rocket 4.4 20:29:55 10° SSW 20:36:15 68° W 20:42:36 10° N
Cosmos 468 Rocket 4.0 20:31:02 10° NNW 20:36:22 80° ENE 20:39:42 23° SSE
CZ-2C R/B 4.1 20:32:07 10° N 20:36:39 64° WNW 20:41:05 10° SSW
Cosmos 1980 Rocket 3.3 20:32:20 10° NW 20:37:37 41° WSW 20:42:50 10° S
Cosmos 44 3.6 20:33:03 10° NNW 20:37:54 56° NE 20:40:36 26° ESE
Resurs 01 Rocket 1.9 20:34:56 15° S 20:38:36 69° WSW 20:43:03 10° NNW
Lacrosse 5 1.9 20:34:00 10° NW 20:39:05 77° SW 20:41:50 27° SE
Cosmos 1602 3.6 20:37:46 19° S 20:40:31 71° E 20:44:27 10° NNE
GP-B 3.1 20:40:42 10° N 20:45:10 86° W 20:48:37 17° S
SPOT 3 Rocket 4.5 20:41:36 10° S 20:46:36 46° W 20:51:35 10° NNW
Cosmos 1933 Rocket 3.5 20:42:59 13° S 20:46:59 88° E 20:51:28 10° N
Cosmos 405 Rocket 2.9 20:50:04 12° SSW 20:53:22 65° WNW 20:57:08 10° N
Spot 2 Rocket 3.4 20:51:17 28° SSE 20:54:02 78° ENE 20:59:09 10° NNW
USA 238 DEB 4.3 20:49:11 10° WSW 20:55:43 57° NW 21:02:34 10° NNE
USA 238 4.3 20:49:17 10° SW 20:55:49 57° NW 21:02:39 10° NNE
Cosmos 1515 3.5 20:54:48 10° N 20:58:38 78° E 20:59:36 48° SSE
Cosmos 1869 Rocket 3.9 20:57:44 40° SE 20:58:41 46° E 21:02:59 10° NNE
CENTAUR R/B 2.6 20:52:52 10° SW 20:58:48 79° NW 21:05:55 10° NE
Okean 1-7 2.9 20:56:11 10° N 21:00:31 74° E 21:01:51 42° SSE
Cosmos 1741 Rocket 4.0 20:56:41 10° SSW 21:01:56 82° WNW 21:07:16 10° NNE
OBJECT-B 3.7 21:04:25 10° SW 21:06:14 14° W 21:08:03 10° WNW
Cosmos 1437 Rocket 2.6 21:02:34 10° NNW 21:06:22 79° W 21:07:19 49° S
Cosmos 1763 Rocket 3.9 21:05:21 10° NNW 21:10:36 61° WSW 21:13:14 29° S
Cosmos 1703 Rocket 3.6 21:06:29 10° NNW 21:10:50 77° W 21:12:20 40° S
H-2A R/B 4.0 21:07:21 10° N 21:11:25 58° WNW 21:14:45 15° SSW
Cosmos 2084 Rocket 4.3 21:09:00 10° WSW 21:13:05 51° NW 21:17:17 10° NNE
Cosmos 2333 Rocket 3.6 21:08:16 10° N 21:13:06 27° NE 21:15:19 21° E
Cosmos 1570 Rocket 4.0 21:07:45 10° NNW 21:13:07 79° ENE 21:14:58 42° SSE
ATLAS 5 CENTAUR R/B 3.2 21:10:51 10° NNW 21:13:26 32° NE 21:14:58 26° E
Landsat 7 4.1 21:15:20 31° S 21:17:28 62° W 21:22:12 10° NNW
SPOT 5 2.7 21:17:39 52° ESE 21:18:19 60° ENE 21:22:42 10° N
SWARM A 4.2 21:15:48 10° N 21:18:54 75° N 21:18:54 75° N
Meteor 1-5 Rocket 4.3 21:18:35 37° SSE 21:20:57 64° E 21:26:47 10° NNE
Cosmos 2208 Rocket 3.9 21:19:21 10° NNW 21:24:36 82° ENE 21:25:58 51° SSE
Cosmos 1733 Rocket 4.3 21:29:41 28° ENE 21:29:41 28° ENE 21:32:40 10° NNE
Meteor 1-11 Rocket 3.9 21:31:46 48° SE 21:32:42 54° E 21:38:20 10° NNE
Lacrosse 4 Rocket 2.5 21:37:37 33° NE 21:37:37 33° NE 21:40:06 10° NE
Tsikada Rocket 4.4 21:31:24 10° N 21:37:28 46° ENE 21:38:46 41° ESE
SL-27 R/B 4.4 21:37:55 16° WSW 21:39:52 26° WNW 21:42:44 10° N
Cosmos 2100 Rocket 3.9 21:36:57 32° SSW 21:40:02 82° W 21:46:13 10° N
SL-4 R/B 3.2 21:38:44 10° WNW 21:42:15 33° N 21:42:59 30° NNE
USA 267 3.1 21:36:13 10° NE 21:42:48 88° SE 21:49:22 10° SW
Meteor 2-4 Rocket 3.9 21:37:23 10° NNW 21:42:55 64° W 21:44:40 42° SSW
Cosmos 2219 Rocket 3.1 21:37:50 10° NNW 21:43:07 37° NE 21:44:23 33° E
Cosmos 540 Rocket 3.7 21:38:12 10° NNW 21:43:19 61° WSW 21:44:28 48° SSW
Cosmos 2173 Rocket 3.9 21:41:11 34° SSW 21:44:01 82° W 21:50:09 10° N
SL-16 R/B 3.2 21:41:08 10° NW 21:46:21 39° WSW 21:48:19 30° SSW
Cosmos 1242 Rocket 3.9 21:48:31 10° N 21:50:53 33° NNE 21:50:53 33° NNE
SAR-Lupe-2 4.4 21:51:01 10° N 21:54:04 51° NW 21:54:04 51° NW
Cosmos 1725 Rocket 3.9 21:55:17 56° SSE 21:56:35 71° E 22:02:54 10° NNE
Meteor 1-23 Rocket 4.4 21:50:50 10° N 21:56:36 59° ENE 21:57:14 56° ESE
Cosmos 2322 3.7 21:51:01 10° NNW 21:56:40 64° ENE 21:57:25 58° E
Cosmos 1459 Rocket 4.2 21:53:46 31° SSW 21:56:55 68° W 22:03:18 10° N
ERS-1 Rocket 3.5 21:56:14 44° SW 21:57:17 51° W 22:02:11 10° NNW
Cosmos 1833 4.1 21:58:11 53° SSW 21:59:36 89° ESE 22:05:18 10° NNE
SL-08 R/B 4.3 21:59:40 60° SSE 22:00:47 78° E 22:06:55 10° N
Cosmos 1536 3.6 22:03:05 46° NNE 22:03:05 46° NNE 22:05:58 10° N
Cosmos 2346 Rocket 4.3 21:56:13 10° N 22:02:18 86° W 22:03:32 59° S
Meteor 1-13 Rocket 4.2 21:56:57 10° NNW 22:02:28 72° W 22:03:24 59° SSW
Cosmos 2322 Rocket 3.3 21:58:27 10° NW 22:03:35 35° WSW 22:05:04 30° SW
Cosmos 2016 Rocket 4.0 22:02:20 49° SSW 22:04:14 85° W 22:10:40 10° N
Cosmos 2221 Rocket 3.8 22:01:16 10° NNW 22:05:37 68° W 22:05:37 68° W
Terra 2.0 22:06:49 62° WSW 22:07:01 63° WSW 22:11:45 10° NNW
Okean 3 4.2 22:04:35 10° NNW 22:08:38 48° W 22:08:38 48° W
COSMOS 2487 4.5 22:12:29 25° N 22:12:29 25° N 22:14:05 10° NNE
Cosmos 1666 3.8 22:12:27 42° NNW 22:12:27 42° NNW 22:15:12 10° N
Cosmos 2333 4.1 22:05:47 10° NNW 22:11:37 82° ENE 22:12:06 74° SE
Cosmos 2360 Rocket 2.5 22:07:24 10° NW 22:12:55 54° WSW 22:13:33 51° SW
USA 234 3.1 22:16:20 58° SE 22:17:49 90° WSW 22:24:24 10° NW
Iridium 4 Rocket 4.0 22:18:30 40° W 22:18:30 40° W 22:22:25 10° NNW
Cosmos 1864 Rocket 4.5 22:17:15 56° SSW 22:18:38 79° W 22:24:57 10° N
ATLAS 3B R/B 3.0 22:14:45 10° SW 22:21:16 60° NW 22:27:52 10° NNE
Lacrosse 5 4.1 22:18:39 10° W 22:21:01 14° WSW 22:21:01 14° WSW
MOS 1-B Rocket 3.8 22:17:42 10° NNE 22:23:10 67° E 22:23:10 67° E
Cosmos 2297 Rocket 4.2 22:32:12 15° ENE 22:32:12 15° ENE 22:33:46 10° NE
Cosmos 2233 Rocket 3.8 22:34:08 75° S 22:34:44 88° E 22:41:06 10° N
Thor Agena Rocket 4.2 22:31:14 10° NNE 22:35:03 44° ENE 22:35:03 44° ENE
COSMOS 2428 2.6 22:34:08 10° NNW 22:39:48 84° NE 22:39:48 84° NE
Cosmos 44 Rocket 3.7 22:38:44 10° NW 22:42:56 63° NW 22:42:56 63° NW
Cosmos 2237 Rocket 3.0 22:38:55 10° NNW 22:44:13 39° NE 22:44:34 38° ENE
Cosmos 1271 Rocket 4.5 22:42:27 10° NNW 22:44:32 31° NNW 22:44:32 31° NNW
NOSS 0 Rocket 4.0 22:45:17 10° NNW 22:51:31 66° ENE 22:51:50 65° ENE
Cosmos 1503 Rocket 4.3 22:58:15 67° N 22:58:15 67° N 23:02:53 10° NNE
Geosat 4.3 22:58:12 63° N 22:58:12 63° N 23:02:33 10° NNW
Cosmos 2333 Rocket 2.5 22:52:07 10° NNW 22:57:19 57° W 22:57:19 57° W
Meteor 2-11 Rocket 4.4 23:06:27 74° W 23:06:32 74° W 23:12:40 10° N
Lacrosse 4 Rocket 3.7 23:13:52 18° WNW 23:14:58 20° NW 23:18:06 10° N
ALOS 2 3.9 23:17:00 39° N 23:17:00 39° N 23:19:50 10° N
Cosmos 2034 Rocket 4.3 23:19:27 54° ENE 23:19:27 54° ENE 23:25:10 10° NNE
Cosmos 2227 Rocket 3.4 23:22:00 32° ENE 23:22:00 32° ENE 23:25:29 10° NE
Cosmos 1072 Rocket 4.4 23:20:38 78° NE 23:20:38 78° NE 23:26:22 10° N
Cosmos 1891 Rocket 4.5 23:21:57 82° ENE 23:21:57 82° ENE 23:28:12 10° N
USA 267 4.3 23:19:23 10° NE 23:25:27 42° NNW 23:31:31 10° W
Cosmos 2219 Rocket 3.3 23:21:51 10° NW 23:26:05 35° W 23:26:05 35° W
Cosmos 1607 4.2 23:40:32 10° NNW 23:46:58 64° NE 23:47:26 62° ENE
